Tracking 28126 objects as of 2-Oct-2023
HD Live streaming from Space Station
objects crossing your sky now

STARLINK-30369

Track STARLINK-30369 now!
10-day predictions
STARLINK-30369 is classified as:


NORAD ID: 57781
Int'l Code: 2023-134L
Perigee: 442.7 km
Apogee: 443.1 km
Inclination: 43.0 °
Period: 93.3 minutes
Semi major axis: 6813 km
RCS: Unknown
Launch date: September 4, 2023
Source: United States (US)
Launch site: AIR FORCE EASTERN TEST RANGE (AFETR)
Your satellite tracking list
Your tracking list is empty




NASA's NSSDC Master Catalog

Two Line Element Set (TLE):
1 57781U 23134L   23274.72501904 -.00017516  00000-0 -37565-3 0  9998
2 57781  43.0002 356.1858 0000337 271.2708  88.8110 15.43512883  5499
Source of the keplerian elements: AFSPC